Location: Vancouver
(49.2500°N, 123.1330°W)
Time: 09:12:09
(UTC-07:00)

ISS - Visible Passes

Search period start: 01 August 2015 00:00
Search period end: 11 August 2015 00:00
Orbit: 401 x 403 km, 51.6° (Epoch: 01 August)

Date Brightness Start Highest point End Pass type
(mag) Time Alt. Az. Time Alt. Az. Time Alt. Az.
01 Aug -1.8 00:45:13 10° W 00:47:06 30° WNW 00:47:06 30° WNW visible
01 Aug -0.7 02:27:58 13° ESE 02:27:58 13° ESE 02:28:21 10° ESE visible
01 Aug -2.5 04:00:55 28° SW 04:01:20 29° SW 04:04:12 10° SSE visible
01 Aug -3.1 22:15:50 10° SW 22:18:58 44° SSE 22:22:06 10° ENE visible
01 Aug -2.9 23:52:07 10° W 23:55:22 62° N 23:56:37 33° ENE visible
02 Aug -0.6 01:28:47 10° WNW 01:29:14 13° WNW 01:29:14 13° WNW visible
02 Aug -2.4 21:23:14 10° SSW 21:26:05 28° SE 21:28:56 10° E visible
02 Aug -3.3 22:59:03 10° WSW 23:02:18 77° NNW 23:05:35 10° ENE visible
03 Aug -2.2 00:35:44 10° WNW 00:38:10 41° NW 00:38:10 41° NW visible
03 Aug -3.4 22:06:02 10° WSW 22:09:17 77° SSE 22:12:33 10° ENE visible
03 Aug -2.6 23:42:38 10° W 23:45:51 54° N 23:46:58 34° ENE visible
04 Aug -0.5 01:19:12 10° WNW 01:19:33 12° WNW 01:19:33 12° WNW visible
04 Aug -2.8 22:49:31 10° W 22:52:45 59° N 22:55:41 12° ENE visible
05 Aug -2.0 00:26:09 10° WNW 00:28:16 36° WNW 00:28:16 36° WNW visible
05 Aug -3.1 21:56:23 10° W 21:59:39 72° NNW 22:02:55 10° ENE visible
05 Aug -2.7 23:33:04 10° WNW 23:36:18 55° N 23:36:58 44° NE visible
06 Aug -2.6 22:39:58 10° W 22:43:10 53° N 22:45:39 16° ENE visible
07 Aug -1.6 00:16:30 10° WNW 00:18:14 29° WNW 00:18:14 29° WNW visible
07 Aug -2.7 21:46:49 10° W 21:50:03 57° N 21:53:16 10° ENE visible
07 Aug -3.2 23:23:26 10° WNW 23:26:42 68° NNE 23:26:55 65° NE visible
08 Aug -2.8 22:30:20 10° WNW 22:33:34 57° N 22:35:35 20° E visible
09 Aug -1.3 00:06:49 10° WNW 00:08:09 22° W 00:08:09 22° W visible
09 Aug -2.6 21:37:12 10° WNW 21:40:25 53° N 21:43:38 10° E visible
09 Aug -3.4 23:13:43 10° WNW 23:16:50 79° W 23:16:50 79° W visible
10 Aug -3.2 22:20:38 10° WNW 22:23:54 72° NNE 22:25:31 27° E visible
